Weather History for Statesville, NC

Change the Weather History Date:

Sunday, December 8, 2013

  Actual Average (KHKY) Record (KHKY)
Temperature  
Mean Temperature 36 °F -  
Max Temperature 41 °F 53 °F 75 °F (1998)
Min Temperature 32 °F 33 °F 17 °F (2006)
Degree Days  
Heating Degree Days 28    
Moisture  
Dew Point 32 °F    
Average Humidity 90    
Maximum Humidity 100    
Minimum Humidity 73    
Precipitation  
Precipitation 0.03 in - - ()
Sea Level Pressure  
Sea Level Pressure 30.35 in    
Wind  
Wind Speed 7 mph (NE)    
Max Wind Speed 12 mph    
Max Gust Speed 17 mph    
Visibility 7 miles    
Events Rain    
Averages and records for this station are not official NWS values.
T = Trace of Precipitation, MM = Missing Value Source: NWS Daily Summary

Daily Weather History Graph

Daily Weather History Graph

Search for Another Location

Airport:

Trip Planner

Search our weather history database for the weather conditions in past years. The results will help you decide how hot, cold, wet, or windy it might be!

Date:

Astronomy

Dec. 08, 2013 Rise Set
Actual Time 7:21 AM EST 5:10 PM EST
Civil Twilight 6:53 AM EST 5:38 PM EST
Nautical Twilight 6:21 AM EST 6:10 PM EST
Astronomical Twilight 5:50 AM EST 6:41 PM EST
Moon 11:50 AM EST (12/8) 11:47 PM EST (12/8)
Length of Visible Light 10h 45m
Length of Day
9h 48m
Waxing Crescent, 40% of the Moon is Illuminated
Dec 8
Waxing Crescent
Dec 9
First Quarter
Dec 17
Full
Dec 25
Last Quarter
Jan 1
New

Hourly Weather History & Observations

Time (EST) Temp. Windchill Dew Point Humidity Pressure Visibility Wind Dir Wind Speed Gust Speed Precip Events Conditions
12:15 AM 41.9 °F 37.5 °F 34.0 °F 73% 30.40 in 10.0 mi NNE 6.9 mph - N/A   Overcast
12:35 AM 41.5 °F 37.8 °F 34.2 °F 75% 30.40 in 10.0 mi NNE 5.8 mph - N/A   Overcast
12:55 AM 41.5 °F 37.8 °F 34.7 °F 77% 30.40 in 10.0 mi North 5.8 mph - N/A   Overcast
1:15 AM 41.9 °F 38.2 °F 35.1 °F 77% 30.40 in 10.0 mi NNE 5.8 mph - N/A   Overcast
1:35 AM 41.9 °F 38.2 °F 35.6 °F 78% 30.39 in 10.0 mi NE 5.8 mph - N/A   Overcast
1:55 AM 41.9 °F 39.0 °F 35.6 °F 78% 30.38 in 10.0 mi NE 4.6 mph - N/A   Overcast
2:15 AM 41.9 °F 36.9 °F 35.2 °F 77% 30.38 in 10.0 mi ENE 8.1 mph - N/A   Overcast
2:35 AM 41.5 °F 35.4 °F 35.1 °F 78% 30.38 in 10.0 mi NE 10.4 mph - N/A   Overcast
2:55 AM 41.0 °F 35.2 °F 34.3 °F 77% 30.37 in 10.0 mi NE 9.2 mph - N/A   Overcast
3:15 AM 40.8 °F 34.5 °F 33.3 °F 74% 30.37 in 10.0 mi ENE 10.4 mph 16.1 mph N/A   Overcast
3:35 AM 40.6 °F 35.4 °F 32.7 °F 73% 30.38 in 10.0 mi NE 8.1 mph - N/A   Overcast
3:55 AM 40.1 °F 36.1 °F 33.6 °F 78% 30.37 in 10.0 mi NE 5.8 mph - N/A   Overcast
4:15 AM 39.7 °F 33.7 °F 33.1 °F 77% 30.36 in 10.0 mi NE 9.2 mph - N/A   Light Drizzle
4:35 AM 39.6 °F 33.5 °F 33.3 °F 78% 30.38 in 10.0 mi NNE 9.2 mph - N/A   Overcast
4:55 AM 38.3 °F 32.5 °F 32.9 °F 81% 30.38 in 10.0 mi NE 8.1 mph - N/A Rain Light Rain
5:15 AM 38.3 °F 31.4 °F 33.1 °F 81% 30.37 in 10.0 mi NE 10.4 mph - N/A   Overcast
5:35 AM 37.8 °F 31.3 °F 32.2 °F 80% 30.38 in 10.0 mi NNE 9.2 mph - N/A   Overcast
5:55 AM 37.6 °F 31.0 °F 31.6 °F 79% 30.38 in 10.0 mi NE 9.2 mph 17.3 mph N/A Rain Light Rain
6:15 AM 37.4 °F 30.8 °F 30.6 °F 76% 30.39 in 10.0 mi NE 9.2 mph - N/A   Overcast
6:35 AM 37.4 °F 30.3 °F 31.5 °F 79% 30.39 in 10.0 mi NE 10.4 mph - N/A Rain Light Rain
6:55 AM 36.1 °F 28.2 °F 31.1 °F 82% 30.38 in 10.0 mi NE 11.5 mph - 0.01 in Rain Rain
7:15 AM 35.8 °F 30.9 °F 31.6 °F 85% 30.39 in 10.0 mi NE 5.8 mph - N/A   Light Drizzle
7:35 AM 35.8 °F 28.8 °F 32.0 °F 86% 30.38 in 10.0 mi ENE 9.2 mph - N/A   Overcast
7:55 AM 35.6 °F 28.0 °F 32.0 °F 87% 30.40 in 10.0 mi NNE 10.4 mph - N/A   Overcast
8:15 AM 35.2 °F 28.1 °F 30.7 °F 84% 30.39 in 10.0 mi NE 9.2 mph - N/A   Overcast
8:35 AM 35.1 °F 29.3 °F 30.4 °F 83% 30.40 in 10.0 mi ENE 6.9 mph 16.1 mph N/A   Overcast
8:55 AM 34.7 °F 26.9 °F 30.0 °F 83% 30.40 in 10.0 mi East 10.4 mph - N/A   Light Drizzle
9:15 AM 33.8 °F 27.7 °F 30.6 °F 88% 30.41 in 5.0 mi ENE 6.9 mph - N/A Rain Light Rain
9:35 AM 33.8 °F 26.4 °F 31.8 °F 92% 30.40 in 5.0 mi ENE 9.2 mph - 0.01 in Rain Light Rain
9:55 AM 33.4 °F 26.6 °F 31.6 °F 93% 30.41 in 10.0 mi ENE 8.1 mph - 0.01 in   Overcast
10:15 AM 33.8 °F 27.0 °F 31.8 °F 92% 30.42 in 10.0 mi NE 8.1 mph - N/A   Overcast
10:35 AM 33.8 °F 28.6 °F 32.0 °F 93% 30.41 in 4.0 mi NE 5.8 mph - N/A   Drizzle
10:55 AM 33.1 °F 26.9 °F 32.0 °F 96% 30.41 in 2.5 mi NE 6.9 mph - 0.01 in Rain Light Rain
11:15 AM 33.3 °F 27.1 °F 32.0 °F 95% 30.41 in 5.0 mi NE 6.9 mph - N/A   Drizzle
11:35 AM 33.1 °F 27.7 °F 32.0 °F 96% 30.40 in 3.0 mi ENE 5.8 mph - N/A   Light Drizzle
11:55 AM 33.6 °F 25.6 °F 32.2 °F 94% 30.38 in 4.0 mi East 10.4 mph - N/A   Overcast
12:15 PM 33.8 °F 27.7 °F 32.2 °F 94% 30.38 in 3.0 mi ENE 6.9 mph - N/A   Light Drizzle
12:35 PM 33.3 °F 26.4 °F 32.2 °F 96% 30.37 in 3.0 mi NNE 8.1 mph - N/A Rain Rain
12:55 PM 33.3 °F 26.4 °F 32.0 °F 95% 30.37 in 4.0 mi NE 8.1 mph - N/A   Light Drizzle
1:15 PM 33.3 °F 28.9 °F 32.2 °F 96% 30.36 in 5.0 mi NE 4.6 mph - N/A   Overcast
1:35 PM 33.1 °F 26.9 °F 32.0 °F 96% 30.34 in 5.0 mi ENE 6.9 mph - N/A   Overcast
1:55 PM 33.1 °F 25.5 °F 32.0 °F 96% 30.34 in 7.0 mi NNE 9.2 mph - N/A   Overcast
2:15 PM 33.1 °F 26.9 °F 32.0 °F 96% 30.34 in 5.0 mi NNE 6.9 mph - N/A   Overcast
2:35 PM 32.7 °F 25.7 °F 32.0 °F 97% 30.33 in 5.0 mi NE 8.1 mph - N/A   Overcast
2:55 PM 32.5 °F 27.1 °F 32.0 °F 98% 30.33 in 7.0 mi NE 5.8 mph - N/A   Overcast
3:15 PM 32.9 °F 25.9 °F 31.8 °F 96% 30.32 in 4.0 mi ENE 8.1 mph - N/A   Light Drizzle
3:35 PM 32.9 °F 26.7 °F 32.0 °F 96% 30.32 in 5.0 mi ENE 6.9 mph - N/A Rain Rain
3:55 PM 32.4 °F 25.3 °F 32.0 °F 99% 30.31 in 2.5 mi NE 8.1 mph - N/A Rain Light Rain
4:15 PM 32.5 °F 25.5 °F 32.0 °F 98% 30.31 in 5.0 mi NE 8.1 mph - N/A   Overcast
4:35 PM 32.5 °F 27.1 °F 31.8 °F 97% 30.32 in 7.0 mi NE 5.8 mph - N/A   Overcast
4:55 PM 32.7 °F 28.3 °F 32.0 °F 97% 30.32 in 10.0 mi NNE 4.6 mph - N/A   Overcast
5:15 PM 32.4 °F 26.0 °F 31.8 °F 98% 30.31 in 5.0 mi ENE 6.9 mph - N/A   Overcast
5:35 PM 32.2 °F 26.7 °F 31.6 °F 98% 30.31 in 7.0 mi NE 5.8 mph - N/A   Overcast
5:55 PM 32.2 °F 26.7 °F 31.6 °F 98% 30.29 in 5.0 mi ENE 5.8 mph - N/A Rain Light Rain
6:15 PM 32.2 °F 28.9 °F 31.8 °F 99% 30.32 in 4.0 mi NNE 3.5 mph - N/A   Light Drizzle
6:35 PM 32.4 °F 29.1 °F 32.0 °F 99% 30.32 in 7.0 mi North 3.5 mph - N/A   Overcast
6:55 PM 32.2 °F 26.7 °F 31.8 °F 99% 30.32 in 7.0 mi NNE 5.8 mph - N/A   Overcast
7:15 PM 32.0 °F 27.5 °F 31.8 °F 99% 30.32 in 7.0 mi NE 4.6 mph - N/A   Overcast
7:35 PM 32.0 °F 27.5 °F 31.6 °F 99% 30.32 in 7.0 mi NNE 4.6 mph - N/A   Overcast
7:55 PM 32.2 °F 27.7 °F 31.8 °F 99% 30.32 in 4.0 mi NE 4.6 mph - N/A   Overcast
8:15 PM 32.2 °F 27.7 °F 32.0 °F 99% 30.32 in 5.0 mi NNE 4.6 mph - N/A   Overcast
8:35 PM 32.2 °F 28.9 °F 32.0 °F 99% 30.32 in 4.0 mi NE 3.5 mph - N/A   Overcast
8:55 PM 32.4 °F - 32.0 °F 99% 30.31 in 3.0 mi Calm Calm - N/A   Overcast
9:15 PM 32.2 °F 26.7 °F 32.0 °F 99% 30.30 in 3.0 mi NE 5.8 mph - N/A   Overcast
9:35 PM 32.2 °F 28.9 °F 32.0 °F 99% 30.31 in 4.0 mi NE 3.5 mph - N/A   Drizzle
9:55 PM 32.2 °F - 32.0 °F 99% 30.31 in 3.0 mi Calm Calm - N/A   Light Drizzle
10:15 PM 32.2 °F - 32.0 °F 99% 30.30 in 5.0 mi Calm Calm - N/A   Overcast
10:35 PM 32.0 °F 28.7 °F 32.0 °F 100% 30.30 in 5.0 mi NNE 3.5 mph - N/A   Overcast
10:55 PM 32.0 °F 28.7 °F 31.8 °F 99% 30.29 in 7.0 mi NNE 3.5 mph - N/A   Overcast
11:15 PM 32.0 °F 27.5 °F 31.8 °F 99% 30.27 in 5.0 mi NNE 4.6 mph - N/A   Overcast
11:35 PM 32.2 °F - 31.8 °F 99% 30.27 in 7.0 mi Calm Calm - N/A   Overcast
11:55 PM 32.0 °F 28.7 °F 31.8 °F 99% 30.26 in 4.0 mi NE 3.5 mph - N/A   Overcast